Find SSU 3

NORAD ID: 8836 Int'l Des: 1976-038 Owner: NRO/NRL Country: US operational
LEO

实时位置

正在加载3D地球...

关于 SSU 3

正在加载描述...

即将过境

Passes for default location (London). Set your location on the main map for personalized predictions.

高度历史

Loading altitude history...

两行轨道根数

1 8836U 76038D 26120.20552777 .00000001 00000-0 55302-4 0 9995
2 8836 63.3626 36.9159 0386702 179.5831 180.5615 13.82921261344648
Epoch: Apr 30, 2026 • Age: 9 hours

当前状态

高度 833.5 km
速度 7.51 km/s
星下点 54.60°N, 100.02°E
类型 other

Most Searched